Flag for Germany Weather past 2 weeks in Nuremberg, Bavaria, Germany

Now
36 °F

Clear.


Feels Like: 36 °F
Forecast: 30 / 58 °F
Wind: 2 mph from East

Location: Nuernberg


UV Index: 3 (Moderate)

Visibility: 10 mi


Pressure: 30.36 "Hg

Humidity: 75%

Dew point: 28 °F

Location of NurembergLocation

Historic Weather in Nuremberg

°F

Nuremberg temperature yesterday

Maximum temperature yesterday: 52 °F (at 3:50 PM)
Minimum temperature yesterday: 30 °F (at 6:50 AM)
Average temperature yesterday: 43 °F

Past Weeks' High & Low Weather Summary

 TemperatureHumidityPressure
High73 °F (Apr 4, 2:20 PM)100% (Apr 5, 5:50 AM)30.36 "Hg (Apr 5, 5:50 AM)
Low30 °F (Apr 16, 6:50 AM)29% (Apr 4, 3:50 PM)29.68 "Hg (Apr 3, 3:20 AM)
Average53 °F67%30.01 "Hg
* Reported Apr 1 11:20 PM — Apr 16 11:50 PM, Nuremberg, Weather by CustomWeather, © 2014

Note: Actual official high and low records may vary slightly from our data, if they occured in-between our weather recording intervals... More about our weather records

Advertising

Historic Weather Conditions — Data for Previous 24 hours

 ConditionsComfort  
Time TempWeatherWind HumidityBarometerVisibility
11:50 PM
Apr 16
36 °FClear.1 mph75%30.36 "Hg10 mi
11:20 PM36 °FClear.1 mph75%30.36 "Hg10 mi
10:50 PM37 °FClear.No wind75%30.36 "Hg10 mi
10:20 PM37 °FClear.1 mph75%30.36 "Hg10 mi
9:50 PM39 °FClear.1 mph65%30.36 "Hg10 mi
9:20 PM41 °FClear.2 mph61%30.36 "Hg10 mi
8:50 PM43 °FSunny.1 mph57%30.36 "Hg10 mi
8:20 PM46 °FSunny.2 mph50%30.36 "Hg10 mi
7:50 PM48 °FSunny.2 mph46%30.36 "Hg10 mi
7:20 PM50 °FPassing clouds.7 mph43%30.33 "HgN/A
6:50 PM50 °FSunny.7 mph40%30.33 "Hg10 mi
6:20 PM52 °FSunny.6 mph41%30.33 "Hg10 mi
5:50 PM50 °FPassing clouds.6 mph43%30.33 "HgN/A
5:20 PM52 °FSunny.7 mph41%30.36 "Hg10 mi
4:50 PM52 °FSunny.7 mph41%30.36 "Hg10 mi
4:20 PM50 °FSunny.8 mph43%30.36 "Hg10 mi
3:50 PM52 °FScattered clouds.8 mph44%30.36 "HgN/A
3:20 PM50 °FScattered clouds.5 mph47%30.36 "HgN/A
2:50 PM50 °FScattered clouds.8 mph47%30.36 "HgN/A
2:20 PM50 °FScattered clouds.9 mph50%30.36 "HgN/A
1:50 PM48 °FCool.6 mph54%30.36 "HgN/A
1:20 PM50 °FScattered clouds.6 mph47%30.36 "HgN/A
12:50 PM50 °FScattered clouds.7 mph54%30.36 "HgN/A
12:20 PM48 °FPartly sunny.7 mph58%30.36 "HgN/A
11:50 AM46 °FPartly sunny.5 mph57%30.36 "HgN/A
11:20 AM46 °FScattered clouds.6 mph66%30.36 "HgN/A
10:50 AM45 °FScattered clouds.7 mph71%30.36 "HgN/A
10:20 AM45 °FScattered clouds.7 mph66%30.36 "HgN/A
9:50 AM45 °FScattered clouds.7 mph66%30.36 "HgN/A
9:20 AM43 °FPassing clouds.5 mph76%30.36 "HgN/A
8:50 AM41 °FPassing clouds.2 mph81%30.36 "HgN/A
8:20 AM37 °FPassing clouds.2 mph87%30.36 "HgN/A
7:50 AM36 °FScattered clouds.2 mph93%30.36 "HgN/A
7:20 AM32 °FPassing clouds.2 mph100%30.33 "HgN/A
6:50 AM30 °FPassing clouds.2 mph93%30.33 "HgN/A
6:20 AM32 °FPassing clouds.2 mph100%30.33 "HgN/A
5:50 AM32 °FPassing clouds.2 mph93%30.33 "HgN/A
5:20 AM34 °FPassing clouds.2 mph93%30.33 "HgN/A
4:50 AM36 °FPassing clouds.1 mph87%30.33 "HgN/A
4:20 AM37 °FPartly cloudy.1 mph87%30.30 "HgN/A
3:50 AM37 °FClear.2 mph87%30.30 "Hg10 mi
3:20 AM39 °FPassing clouds.3 mph81%30.30 "HgN/A
2:50 AM39 °FPassing clouds.2 mph75%30.30 "HgN/A
2:20 AM39 °FClear.2 mph75%30.30 "Hg10 mi
1:20 AM39 °FPartly cloudy.2 mph75%30.27 "HgN/A
12:50 AM39 °FPartly cloudy.3 mph75%30.27 "HgN/A
12:20 AM39 °FPassing clouds.3 mph75%30.27 "HgN/A
Weather by CustomWeather, © 2014

See weather overview